CZ-4C DEB, 43270

Orbit data source: Space-Track

CZ-4C DEB, 43270 is space debris in SSO originally from a launch on Sat, 31 Mar 2018 UTC launched from the Taiyaun Space Center, China (TSC). Debris objects in space refer to the collection of defunct objects orbiting the Earth. Examples of debris include non-operational satellites, rocket bodies, and fragments generated from explosions, collisions, or faulty payload assembly.

Loading next visibility...
Identifier
43270, 2018-031J
Orbit
SSO
Last TLE update
5 days ago
Origin
Manufacturer
Unknown
Mission
Spacecraft
Bus & Motor
Unknown
Mass
Unknown
Launch date (UTC)
2018-03-31 (7 years ago)
Launch vehicle
Unknown
Launch site
Taiyaun Space Center, China (TSC)
Object type
Payload
Rocket body
Debris
Shape & HBR
Unknown
Radar Cross Section
Small (<0.1 m²)

Expand to show TLE details & history

TLE from 5 days ago
0 CZ-4C DEB
1 43270U 18031J   25124.42727738  .00001357  00000-0  18689-3 0  9994
2 43270  97.7726 188.4702 0005429 163.3385 196.8006 14.79809364392471
Epoch: 2025-05-04T10:15Z
Definitive object data (Epoch: 2025-05-04T10:15:16.765Z)
Latitude
-0.00009°
Longitude
172.09502°
Altitude
636.594 km
Speed
7.538 km/s
True Right ascension
12h 33m 52s
True Declination
0° 00' 00"
Sunlit
Object was in full shadow at TLE epoch
Visualization TLE readout
Latitude
-3.86169°
Longitude
-3.16277°
Altitude
630.49 km
Speed
7.545 km/s
Apparent Right ascension
22h 03m 08s
Apparent Declination
-35° 00' 39"
Sunlit
Object is in daylight
Visualization observer readout
Local Sidereal Time
05:05:38
Azimuth
249.273° W
Elevation
-32.503°
Doppler factor
1
Orbital elements
Apogee altitude
630.764 km
Perigee altitude
623.158 km
Semi-major axis
7,005.098 km
Eccentricity
0.0005429
Inclination
97.7726°
RAAN
188.4702°
Arg. of periapsis
163.3385°
True anomaly
196.78263°
Mean anomaly
196.8006°
Eccentric anomaly
196.79161°
Mean motion
3.70188 °/min
BSTAR
0.00018689
Orbital period
97.25 mins
Loading maneuver chart data...
Loading SW <> Apogee altitude chart data...
Loading historical data...
Loading historical data...
Loading historical data...
Loading historical data...
Loading historical data...
Loading historical data...
Loading historical data...

CZ-4C DEB Visibility forecast

Observer location: undefined°, undefined°

Span
Click to sort rows by Start time (UTC) header in descending order
Start Az.
Max El. time (UTC)
Max El. Az.
Max El.
End time (UTC)
End Az.
8 mins2025-05-10 04:18:26.117Z170.61° S2025-05-10 04:22:26.117Z250.955° W44.535°2025-05-10 04:26:26.117Z344.918° N
5 mins2025-05-10 16:09:26.117Z60.336° ENE2025-05-10 16:11:26.117Z94.881° ESE18.906°2025-05-10 16:14:26.117Z140.311° SSE
6 mins2025-05-10 17:45:26.117Z340.013° N2025-05-10 17:47:26.117Z298.858° NW28.665°2025-05-10 17:51:26.117Z226.34° WSW
|